Flag for Finland Weather past 2 weeks in Vaasa, Finland

Now
50 °F

Overcast.


Feels Like: 44 °F
Forecast: 42 / 51 °F
Wind: 17 mph from Southwest

Location: Vaasa Airport

Current Time: Oct 26, 2014 at 6:37:20 AM

Latest Report: Oct 26, 2014 at 6:20 AM


Visibility: N/A

Pressure: 29.77 "Hg

Humidity: 88%

Dew point: 46 °F

Location of VaasaLocation

Historic Weather in Vaasa — Graph

°F

Vaasa temperature yesterday

Maximum temperature yesterday: 48 °F (at 1:20 PM)
Minimum temperature yesterday: 39 °F (at 12:20 AM)
Average temperature yesterday: 45 °F

Past Weeks' High & Low Weather Summary

 TemperatureHumidityPressure
High50 °F (Oct 26, 3:50 AM)100% (Oct 11, 6:20 AM)30.45 "Hg (Oct 11, 6:20 AM)
Low21 °F (Oct 22, 7:20 AM)55% (Oct 22, 1:50 PM)29.36 "Hg (Oct 20, 3:20 AM)
Average35 °F87%29.99 "Hg
* Reported Oct 11 6:20 AM — Oct 26 5:20 AM, Vaasa, Weather by CustomWeather, © 2014

Note: Actual official high and low records may vary slightly from our data, if they occured in-between our weather recording intervals... More about our weather records

Advertising

Vaasa weather history for previous 24 hours

 ConditionsComfort  
Time TempWeatherWind HumidityBarometerVisibility
5:20 AM
Oct 26
50 °FOvercast.16 mph88%29.77 "HgN/A
4:50 AM50 °FLow clouds.14 mph88%29.77 "HgN/A
4:20 AM50 °FOvercast.14 mph88%29.80 "HgN/A
3:50 AM50 °FOvercast.14 mph88%29.80 "HgN/A
3:20 AM48 °FPassing clouds.15 mph87%29.80 "HgN/A
3:50 AM48 °FOvercast.13 mph94%29.80 "HgN/A
3:20 AM48 °FLow clouds.13 mph94%29.83 "HgN/A
2:50 AM48 °FMostly cloudy.13 mph94%29.80 "HgN/A
2:20 AM48 °FOvercast.13 mph94%29.83 "HgN/A
1:50 AM48 °FOvercast.14 mph94%29.83 "HgN/A
1:20 AM48 °FOvercast.13 mph94%29.83 "HgN/A
12:50 AM48 °FLow clouds.13 mph94%29.83 "HgN/A
12:20 AM48 °FLow clouds.13 mph94%29.83 "HgN/A
11:50 PM
Oct 25
48 °FLow clouds.13 mph94%29.83 "HgN/A
11:20 PM48 °FLow clouds.13 mph94%29.83 "HgN/A
10:50 PM48 °FLow clouds.15 mph94%29.83 "HgN/A
10:20 PM48 °FLow clouds.14 mph94%29.83 "HgN/A
9:50 PM48 °FLow clouds.14 mph94%29.80 "HgN/A
9:20 PM48 °FDrizzle. Low clouds.13 mph94%29.83 "HgN/A
8:50 PM48 °FDrizzle. Fog.14 mph100%29.80 "Hg4 mi
8:20 PM46 °FDrizzle. Fog.12 mph100%29.83 "Hg4 mi
7:50 PM46 °FLight rain. Low clouds.14 mph100%29.83 "HgN/A
7:20 PM46 °FDrizzle. Low clouds.15 mph100%29.83 "HgN/A
6:50 PM46 °FRain. Mostly cloudy.17 mph93%29.83 "HgN/A
6:20 PM46 °FRain. Mostly cloudy.17 mph100%29.83 "HgN/A
5:50 PM46 °FRain. Mostly cloudy.16 mph100%29.83 "Hg6 mi
5:20 PM46 °FLight rain. Mostly cloudy.17 mph93%29.83 "Hg4 mi
4:50 PM48 °FLight rain. Mostly cloudy.20 mph94%29.83 "Hg3 mi
4:20 PM48 °FDrizzle. Fog.17 mph94%29.83 "Hg3 mi
3:50 PM48 °FLight rain. Fog.17 mph94%29.83 "Hg2 mi
3:20 PM48 °FLight rain. Low clouds.20 mph94%29.83 "Hg4 mi
2:50 PM48 °FLight rain. Mostly cloudy.17 mph94%29.83 "Hg2 mi
2:20 PM48 °FDrizzle. Fog.16 mph94%29.86 "Hg2 mi
1:50 PM48 °FLight rain. Low clouds.17 mph94%29.86 "Hg5 mi
1:20 PM48 °FLight rain. Low clouds.15 mph94%29.86 "Hg3 mi
12:50 PM46 °FLight rain. Mostly cloudy.15 mph100%29.86 "Hg4 mi
12:20 PM46 °FLight rain. Mostly cloudy.15 mph100%29.89 "Hg4 mi
11:50 AM46 °FDrizzle. Low clouds.14 mph93%29.89 "Hg4 mi
11:20 AM45 °FDrizzle. Low clouds.15 mph100%29.89 "Hg4 mi
10:50 AM45 °FDrizzle. Low clouds.17 mph93%29.89 "Hg4 mi
10:20 AM45 °FDrizzle. Mostly cloudy.17 mph93%29.89 "Hg4 mi
9:50 AM45 °FDrizzle. Mostly cloudy.17 mph93%29.89 "HgN/A
9:20 AM43 °FDrizzle. Low clouds.16 mph100%29.89 "Hg5 mi
8:50 AM43 °FLight rain. Low clouds.16 mph93%29.92 "Hg4 mi
8:20 AM43 °FDrizzle. Fog.17 mph93%29.92 "Hg4 mi
7:50 AM43 °FLow clouds.17 mph93%29.92 "Hg4 mi
7:20 AM43 °FLow clouds.17 mph93%29.92 "Hg4 mi
6:50 AM43 °FLow clouds.20 mph93%29.92 "HgN/A
6:20 AM41 °FDrizzle. Low clouds.18 mph100%29.92 "Hg6 mi
Weather by CustomWeather, © 2014

See weather overviewHow to use our weather pages